Location: Juzet
(42.9779°N, 0.7597°E)
Time: 18:50:59
(UTC+00:00)

Cosmos 1741 Rocket - Pass Details

Date: 14 July 2020
Orbit: 761 x 783 km, 74.0° (Epoch: 12 August)

Event Time Altitude Azimuth Distance (km) Brightness Sun altitude
Exits shadow 03:04:20 17° 202° (SSW) 1,862 5.4 -13.1°
Maximum altitude 03:08:25 84° 290° (WNW) 772 4.0 -12.6°
Drops below altitude 10° 03:13:40 10° 19° (NNE) 2,307 7.6 -11.9°
Sets 03:16:03 0° 20° (NNE) 3,240 8.5 -11.6°
